Location: ??
(35.1714°N, 128.2806°E)
Time: 14:24:59
(UTC+00:00)

CENTAUR R/B - Pass Details

Date: 29 October 2020
Orbit: 749 x 1439 km, 63.5° (Epoch: 22 November)

Event Time Altitude Azimuth Distance (km) Brightness Sun altitude
Exits shadow 19:08:29 21° 358° (N) 2,135 4.3 -32.7°
Drops below altitude 10° 19:11:10 10° 14° (NNE) 2,914 5.2 -32.2°
Sets 19:14:26 0° 25° (NNE) 3,998 6.1 -31.5°
